Weather observations for the past three days for
Gatesville, City-County Airport
Metric (Imperial)
Date Time (cdt) Wind (kph) Vis. (km) Weather Sky Cond. Temperature (ºC) Relative Humidity Wind Chill (°C) Heat Index (°C) Pressure Precipitation (cm)
Air Dwpt 6 hour altimeter (cm) sea level (mb) 1 hr 3 hr 6 hr
Max. Min.
04 04:35 S 7 16.09 Fair CLR 15 14 94% 76.1 0.0
04 04:15 S 7 16.09 Fair CLR 16 14 88% 76.1 0.0
04 03:55 S 9 16.09 Fair CLR 16 14 88% 76.1 0.0
04 03:35 S 9 16.09 Fair CLR 16 13 83% 76.1 0.0
04 03:15 S 13 G 24 16.09 Fair CLR 17 13 77% 76.1 0.0
04 02:55 S 15 16.09 Fair CLR 17 13 77% 76.1 0.0
04 02:35 S 13 G 24 16.09 Fair CLR 17 13 77% 76.12 0.0
04 02:15 S 13 G 22 16.09 Fair CLR 17 13 77% 76.15 0.0
04 01:55 S 13 G 24 16.09 Fair CLR 18 13 73% 76.17 0.0
04 01:35 S 15 16.09 Fair CLR 18 12 68% 76.2 0.0
04 01:15 S 13 16.09 Fair CLR 17 12 73% 76.23 0.0
04 00:55 S 11 16.09 Fair CLR 17 12 73% 76.23 0.0
04 00:35 SE 11 16.09 Fair CLR 17 12 73% 76.23 0.0
04 00:15 SE 11 16.09 Fair CLR 17 12 73% 76.23 0.0
03 23:55 SE 11 16.09 Fair CLR 18 11 64% 76.25 0.0
03 23:35 SE 11 16.09 Fair CLR 18 11 64% 76.25 0.0
03 23:15 SE 11 16.09 Fair CLR 18 12 68% 76.28 0.0
03 22:55 SE 9 16.09 Fair CLR 18 12 68% 76.28 0.0
03 22:35 SE 11 16.09 Fair CLR 18 12 68% 76.28 0.0
03 22:15 S 11 16.09 Fair CLR 18 12 68% 76.28 0.0
03 21:55 SE 9 16.09 Fair CLR 18 12 68% 76.28 0.0
03 21:35 SE 9 16.09 Fair CLR 18 11 64% 76.25 0.0
03 21:15 S 9 16.09 Fair CLR 19 11 60% 76.25 0.0
03 20:55 S 7 16.09 Fair CLR 20 11 56% 76.25 0.0
03 20:35 SE 9 16.09 Fair CLR 20 11 56% 76.23 0.0
03 20:15 SE 11 16.09 Fair CLR 21 11 53% 76.23 0.0
03 19:55 SE 9 16.09 Fair CLR 22 10 47% 76.25 0.0
03 19:35 SE 11 16.09 Fair CLR 23 10 44% 76.23 0.0
03 19:15 S 9 G 24 16.09 Fair CLR 24 9 39% 25 76.23 0.0
03 18:55 Vrbl 11 G 22 16.09 Fair CLR 25 9 36% 26 76.25 0.0
03 18:35 S 15 G 30 16.09 Fair CLR 25 8 34% 26 76.25 0.0
03 18:15 SE 17 G 30 16.09 Fair CLR 26 8 32% 26 76.28 0.0
03 17:55 S 19 G 31 16.09 Fair CLR 26 8 32% 26 76.28 0.0
03 17:35 S 17 G 26 16.09 Fair CLR 26 8 32% 26 76.3 0.0
03 17:15 S 17 G 35 16.09 Fair CLR 26 7 30% 26 76.3 0.0
03 16:55 S 15 G 28 16.09 Fair CLR 26 7 30% 26 76.33 0.0
03 16:35 S 17 G 28 16.09 Fair CLR 26 7 30% 26 76.35 0.0
03 16:15 SE 15 G 33 16.09 Fair CLR 27 8 30% 26 76.38 0.0
03 15:55 S 17 16.09 Fair CLR 27 7 28% 26 76.4 0.0
03 15:35 S 15 G 26 16.09 Fair CLR 27 7 28% 26 76.4 0.0
03 15:15 S 15 G 26 16.09 Fair CLR 27 6 26% 26 76.45 0.0
03 14:55 S 17 G 26 16.09 Fair CLR 26 6 28% 26 76.48 0.0
03 14:35 S 17 G 37 16.09 Fair CLR 26 6 28% 26 76.5 0.0
03 14:15 SW 15 G 26 16.09 Fair CLR 26 6 28% 26 76.5 0.0
03 13:55 S 17 G 30 16.09 Thunderstorm in Vicinity CLR 26 6 28% 26 76.53 0.0
03 13:35 S 17 G 28 16.09 Thunderstorm in Vicinity CLR 26 6 28% 26 76.56 0.0
03 13:15 S 17 G 30 16.09 Thunderstorm in Vicinity CLR 26 7 30% 26 76.61 0.0
03 12:55 SW 11 G 33 16.09 Thunderstorm in Vicinity CLR 25 8 34% 26 76.61 0.0
03 12:35 S 17 G 26 16.09 Thunderstorm in Vicinity CLR 25 7 32% 25 76.63 0.0
03 12:15 SW 15 G 26 16.09 Fair CLR 25 8 34% 26 76.66 0.0
03 11:55 SW 15 16.09 Thunderstorm in Vicinity CLR 25 9 36% 26 76.68 0.0
03 11:35 SW 19 16.09 Thunderstorm in Vicinity CLR 24 10 41% 25 76.71 0.0
03 11:15 SW 15 16.09 Fair CLR 23 10 44% 76.71 0.0
03 10:55 SW 15 G 24 16.09 Fair CLR 23 10 44% 76.71 0.0
03 10:35 SW 17 16.09 Fair CLR 22 11 50% 76.71 0.0
03 10:15 SW 15 16.09 Fair CLR 22 12 53% 76.73 0.0
03 09:55 SW 13 16.09 Fair CLR 21 12 57% 76.71 0.0
03 09:35 SW 11 G 22 16.09 Fair CLR 20 13 64% 76.71 0.0
03 09:15 SW 11 G 20 16.09 Fair CLR 19 13 68% 76.71 0.0
03 08:55 Calm 16.09 Fair CLR 17 13 77% 76.71 0.0
03 08:35 W 13 16.09 Fair CLR 16 12 77% 76.71 0.0
03 08:15 SW 9 16.09 Fair CLR 15 12 82% 76.68 0.0
03 07:55 SW 6 16.09 Fair CLR 14 12 88% 76.68 0.0
03 07:35 W 6 16.09 Fair CLR 12 11 94% 76.66 0.0
03 07:15 Calm 16.09 Fair CLR 11 11 100% 76.63 0.0
03 06:55 Calm 16.09 Fair CLR 11 11 100% 76.63 0.0
03 06:35 Calm 16.09 Fair CLR 11 11 100% 76.61 0.0
03 06:15 Calm 16.09 Fair CLR 11 11 100% 76.61 0.0
03 05:55 Calm 16.09 Fair CLR 10 10 100% 76.61 0.0
03 05:35 Calm 16.09 Fair CLR 11 11 100% 76.61 0.0
03 05:15 Calm 16.09 Fair CLR 11 11 100% 76.61 0.0
03 04:55 Calm 16.09 Fair CLR 12 11 94% 76.61 0.0
03 04:35 Calm 16.09 Fair CLR 11 11 100% 76.61 0.0
03 04:15 Calm 16.09 Fair CLR 11 11 100% 76.58 0.0
03 03:55 Calm 12.87 Fair CLR 12 11 94% 76.58 0.0
03 03:35 SW 7 16.09 Fair CLR 12 11 94% 76.56 0.0
03 03:15 SW 6 16.09 Fair CLR 13 11 88% 76.58 0.0
03 02:55 Calm 16.09 Fair CLR 12 12 100% 76.58 0.0
03 02:35 Calm 16.09 Fair CLR 12 11 94% 76.61 0.0
03 02:15 Calm 16.09 Fair CLR 14 11 82% 76.58 0.0
03 01:55 Calm 16.09 Fair CLR 13 12 94% 76.61 0.0
03 01:35 Calm 16.09 Fair CLR 13 12 94% 76.63 0.0
03 01:15 Calm 16.09 Fair CLR 13 12 94% 76.63 0.0
03 00:55 Calm 16.09 Fair CLR 13 12 94% 76.63 0.0
03 00:35 Calm 16.09 Fair CLR 14 12 88% 76.63 0.0
03 00:15 SW 6 16.09 Fair CLR 14 12 88% 76.63 0.0
02 23:55 Calm 16.09 Fair CLR 14 12 88% 76.61 0.0
02 23:35 S 9 16.09 Fair CLR 13 12 94% 76.61 0.0
02 23:15 Calm 16.09 Fair CLR 15 12 82% 76.61 0.0
02 22:55 Calm 16.09 Fair CLR 14 13 94% 76.61 0.0
02 22:35 Calm 16.09 Fair CLR 16 11 72% 76.61 0.0
02 22:15 S 6 16.09 Fair CLR 16 11 72% 76.58 0.0
02 21:55 S 7 16.09 Fair CLR 17 11 68% 76.58 0.0
02 21:35 S 6 16.09 Fair CLR 17 11 68% 76.56 0.0
02 21:15 SE 7 16.09 Fair CLR 18 11 64% 76.53 0.0
02 20:55 SE 6 16.09 Fair CLR 18 11 64% 76.53 0.0
02 20:35 SE 7 16.09 Fair CLR 19 11 60% 76.5 0.0
02 20:15 Calm 16.09 Fair CLR 20 11 56% 76.48 0.0
02 19:55 Calm 16.09 Fair CLR 21 10 50% 76.48 0.0
02 19:35 Calm 16.09 Fair CLR 22 9 44% 76.48 0.0
02 19:15 Calm 16.09 Fair CLR 23 8 38% 76.48 0.0
02 18:55 NE 7 16.09 Partly Cloudy SCT085 22 8 41% 76.48 0.0
02 18:35 N 9 16.09 Mostly Cloudy BKN085 24 6 31% 25 76.48 0.0
02 18:15 Calm 16.09 Fair CLR 23 5 31% 76.48 0.0
02 17:55 NE 9 16.09 Fair CLR 24 6 31% 25 76.48 0.0
02 17:35 Calm 16.09 A Few Clouds FEW075 24 6 31% 25 76.48 0.0
02 17:15 Calm 16.09 Fair CLR 24 6 31% 25 76.48 0.0
02 16:55 Vrbl 11 16.09 Fair CLR 24 6 31% 25 76.5 0.0
02 16:35 NE 9 G 24 16.09 Fair CLR 24 7 34% 25 76.5 0.0
02 16:15 Calm 16.09 A Few Clouds FEW070 23 5 31% 76.53 0.0
02 15:55 NE 13 16.09 Partly Cloudy SCT070 24 8 36% 25 76.56 0.0
02 15:35 Vrbl 6 16.09 Fair CLR 23 6 33% 76.56 0.0
02 15:15 Vrbl 11 16.09 A Few Clouds FEW070 24 8 36% 25 76.58 0.0
02 14:55 Calm 16.09 Fair CLR 23 8 38% 76.58 0.0
02 14:35 N 11 G 24 16.09 Fair CLR 23 7 36% 76.61 0.0
02 14:15 N 13 G 22 16.09 A Few Clouds FEW065 23 8 38% 76.61 0.0
02 13:55 NE 13 G 24 16.09 A Few Clouds FEW065 23 8 38% 76.61 0.0
02 13:35 Vrbl 11 G 28 16.09 Fair CLR 22 9 44% 76.63 0.0
02 13:15 Vrbl 9 G 19 16.09 Fair CLR 22 9 44% 76.66 0.0
02 12:55 Vrbl 7 16.09 Fair CLR 21 10 50% 76.68 0.0
02 12:35 Calm 16.09 Fair CLR 21 10 50% 76.71 0.0
02 12:15 N 9 16.09 Fair CLR 21 10 50% 76.73 0.0
02 11:55 Vrbl 6 14.48 Fair CLR 20 10 53% 76.73 0.0
02 11:35 Vrbl 7 16.09 Fair CLR 20 11 56% 76.73 0.0
02 11:15 Vrbl 9 16.09 Fair CLR 19 12 64% 76.76 0.0
02 10:55 Calm 16.09 Fair CLR 19 12 64% 76.73 0.0
02 10:35 Vrbl 6 14.48 Fair CLR 18 12 68% 76.73 0.0
02 10:15 W 11 16.09 Fair CLR 18 11 64% 76.73 0.0
02 09:55 Calm 16.09 Fair CLR 17 12 73% 76.73 0.0
02 09:35 Vrbl 6 16.09 Fair CLR 17 12 73% 76.73 0.0
02 09:15 W 9 16.09 Fair CLR 15 12 82% 76.71 0.0
02 08:55 Calm 16.09 Fair CLR 14 12 88% 76.71 0.0
02 08:35 NW 7 16.09 Fair CLR 13 12 94% 76.71 0.0
02 08:15 W 6 16.09 Fair CLR 12 11 94% 76.68 0.0
02 07:55 Calm 16.09 Fair CLR 10 10 100% 76.66 0.0
02 07:35 W 7 16.09 Fair CLR 9 9 100% 8 76.66 0.0
02 07:15 W 6 16.09 Fair CLR 8 8 100% 76.61 0.0
02 06:55 Calm 16.09 Fair CLR 8 8 100% 76.58 0.0
02 06:35 Calm 16.09 Fair CLR 8 8 100% 76.56 0.0
02 06:15 W 7 16.09 Fair CLR 8 8 100% 7 76.53 0.0
02 05:55 Calm 16.09 Fair CLR 8 8 100% 76.5 0.0
02 05:35 Calm 16.09 Fair CLR 8 8 100% 76.48 0.0
02 05:15 Calm 16.09 Fair CLR 8 8 100% 76.48 0.0
02 04:55 Calm 16.09 Fair CLR 9 9 100% 76.48 0.0
02 04:35 Calm 16.09 Fair CLR 9 9 100% 76.48 0.0
02 04:15 W 6 16.09 Fair CLR 9 9 100% 76.45 0.0
02 03:55 Calm 16.09 Fair CLR 10 10 100% 76.48 0.0
02 03:35 Calm 16.09 Fair CLR 10 10 100% 76.48 0.0
02 03:15 NW 6 16.09 Fair CLR 10 10 100% 76.48 0.0
02 02:55 NW 7 16.09 Fair CLR 10 10 100% 9 76.45 0.0
02 02:35 Calm 16.09 Fair CLR 10 10 100% 76.45 0.0
02 02:15 Calm 16.09 Fair CLR 10 10 100% 76.45 0.0
02 01:55 Calm 16.09 Fair CLR 10 10 100% 76.48 0.0
02 01:35 Calm 16.09 Fair CLR 11 11 100% 76.48 0.0
02 01:15 Calm 16.09 Fair CLR 11 11 100% 76.48 0.0
02 00:55 Calm 16.09 A Few Clouds FEW095 11 11 100% 76.48 0.0
02 00:35 N 6 16.09 Mostly Cloudy BKN095 11 11 100% 76.48 0.0
02 00:15 N 6 16.09 Overcast OVC095 11 11 100% 76.45 0.0
01 23:55 N 7 16.09 Overcast OVC100 11 11 100% 76.43 0.0
01 23:35 N 7 16.09 Partly Cloudy SCT100 11 11 100% 76.45 0.0
01 23:15 N 7 16.09 Fair CLR 11 11 100% 76.45 0.0
01 22:55 Calm 11.27 Fair CLR 12 12 100% 76.43 0.0
01 22:35 Calm 16.09 Mostly Cloudy SCT042 BKN085 12 11 94% 76.43 0.0
01 22:15 Calm 16.09 Overcast BKN042 OVC090 13 12 94% 76.4 0.0
01 21:55 N 7 16.09 Overcast BKN043 OVC090 13 11 88% 76.4 0.0
01 21:35 N 6 16.09 Overcast OVC095 13 12 94% 76.4 0.0
01 21:15 N 7 16.09 Overcast OVC095 13 12 94% 76.38 0.0
01 20:55 N 6 16.09 Overcast OVC090 14 12 88% 76.35 0.0
01 20:15 NE 7 16.09 Overcast OVC095 14 12 88% 76.28 0.0
01 19:55 NE 9 16.09 Overcast BKN080 OVC090 14 12 88% 76.25 0.0
01 19:35 N 9 16.09 Overcast OVC075 14 11 82% 76.23 0.0
01 19:15 NE 9 16.09 Overcast OVC070 14 11 82% 76.2 0.0
01 18:55 NE 7 16.09 Overcast OVC065 15 11 77% 76.2 0.0
01 18:35 NE 7 16.09 Overcast OVC065 15 11 77% 76.17 0.0
01 18:15 Vrbl 7 16.09 Overcast OVC065 15 12 82% 76.15 0.0
01 17:55 NE 11 16.09 Overcast SCT044 OVC065 14 11 82% 76.12 0.0
01 17:35 NE 7 16.09 Overcast OVC042 14 12 88% 76.15 0.0
01 17:15 NE 13 G 24 16.09 Overcast FEW032 OVC040 14 11 82% 76.15 0.0
01 16:55 N 20 G 30 16.09 Overcast FEW025 BKN034 OVC039 14 11 82% 76.15 0.0
01 16:35 N 17 G 30 16.09 Overcast SCT023 BKN028 OVC036 14 12 88% 76.1 0.0
01 16:15 N 15 G 26 16.09 Overcast OVC022 14 13 94% 76.12 0.0
01 15:50 N 17 G 33 16.09 Light Rain OVC018 13 13 100% 76.07 0.0
01 15:35 N 22 G 33 16.09 Overcast OVC015 13 13 100% 76.1 0.0
01 15:15 N 22 G 37 16.09 Light Drizzle OVC015 14 14 100% 76.12 0.0
01 14:55 N 24 G 35 16.09 Mostly Cloudy BKN013 BKN018 BKN028 14 14 100% 76.1 0.0
01 14:35 N 24 G 33 14.48 Light Drizzle FEW012 BKN025 14 14 100% 76.05 0.0
01 14:15 N 15 G 24 4.83 Light Rain Fog/Mist FEW012 SCT019 BKN024 13 13 100% 76.1 0.0
01 13:55 Vrbl 11 8.05 Light Rain Fog/Mist FEW013 BKN018 OVC022 13 13 100% 76.17 0.0
01 13:35 NE 9 G 22 12.87 Light Rain SCT008 SCT011 OVC017 13 13 100% 76.2 0.0
01 13:15 NE 13 G 26 16.09 Overcast OVC008 13 13 100% 76.17 0.0
01 12:55 N 15 G 26 16.09 Overcast OVC010 13 13 100% 76.17 0.0
01 12:35 NE 20 G 35 16.09 Overcast OVC010 13 13 100% 76.12 0.0
01 12:15 NE 17 G 35 16.09 Overcast OVC008 13 13 100% 76.1 0.0
01 11:55 NE 20 16.09 Overcast OVC009 13 13 100% 76.12 0.0
01 11:35 NE 15 G 35 14.48 Light Drizzle BKN009 BKN013 13 13 100% 76.15 0.0
01 11:15 NE 20 G 33 14.48 Light Rain BKN009 BKN012 13 13 100% 76.12 0.0
01 10:55 NE 13 G 31 16.09 Light Drizzle OVC009 13 13 100% 76.17 0.0
01 10:35 NE 17 16.09 Light Rain BKN008 OVC012 13 13 100% 76.15 0.0
01 10:15 NE 15 G 33 16.09 Light Rain BKN008 BKN012 13 13 100% 76.12 0.0
01 09:55 NE 19 G 28 14.48 Light Rain FEW008 SCT012 13 13 100% 76.07 0.0
01 09:35 E 17 G 35 11.27 Light Rain SCT009 SCT041 SCT070 13 13 100% 76.1 0.0
01 09:15 NE 13 G 33 4.83 Light Rain Fog/Mist SCT008 SCT033 BKN040 13 13 100% 76.12 0.0
01 08:55 E 13 G 24 4.83 Light Rain Fog/Mist SCT008 BKN011 OVC033 13 13 100% 76.17 0.0
01 08:35 Vrbl 9 G 24 6.44 Light Rain Fog/Mist BKN009 OVC013 13 13 100% 76.2 0.0
01 08:15 NE 15 4.83 Light Rain Fog/Mist BKN009 OVC013 13 13 100% 76.15 0.0
01 07:55 NE 11 11.27 Light Rain BKN009 OVC013 14 14 100% 76.17 0.0
01 07:35 NE 13 G 24 12.87 Light Drizzle BKN008 OVC013 14 14 100% 76.07 0.0
01 07:15 NE 7 G 19 4.83 Light Rain Fog/Mist SCT009 OVC014 14 14 100% 76.1 0.0
01 06:55 NE 19 G 30 11.27 Light Rain SCT007 OVC011 14 14 100% 76.07 0.0
01 06:35 NE 9 11.27 Light Rain BKN006 OVC009 14 14 100% 76.12 0.0
01 06:15 Vrbl 7 8.05 Light Rain Fog/Mist OVC007 14 14 100% 76.1 0.0
01 05:55 NE 9 G 20 8.05 Light Rain Fog/Mist OVC006 14 14 100% 76.1 0.0
01 05:35 Vrbl 9 G 20 9.66 Light Rain Fog/Mist OVC005 14 14 100% 76.02 0.0
01 05:15 NE 13 9.66 Light Rain Fog/Mist OVC005 14 14 100% 76.05 0.0
01 04:55 NE 11 8.05 Light Drizzle Fog/Mist OVC005 14 14 100% 76.07 0.0
Date Time (cdt) Wind (kph) Vis. (km) Weather Sky Cond. Air Dwpt Max. Min. Relative Humidity Wind Chill (°C) Heat Index (°C) altimeter (cm) sea level (mb) 1 hr 3 hr 6 hr
6 hour
Temperature (ºC) Pressure Precipitation (cm)